Location: Goudex
(43.3760°N, 0.9543°E)
Time: 21:33:29
(UTC+00:00)

PAYLOAD A - Pass Details

Date: 20 November 2019
Orbit: 693 x 831 km, 98.3° (Epoch: 10 December)

Event Time Altitude Azimuth Distance (km) Brightness Sun altitude
Rises 03:57:40 0° 16° (NNE) 3,348 7.5 -32.1°
Reaches altitude 10° 04:00:01 10° 19° (NNE) 2,424 6.8 -31.6°
Enters shadow 04:05:15 66° 91° (E) 907 4.4 -30.7°
